This is the latest recevied weather packets stored in our database for station/object IW2NIA-3. If no packets are shown the sender has not sent any weather packets the latest 10 day(s).
| Time | Temp. | Humidity | Pressure | Rain* | Wind** | Luminosity | Snow |
|---|---|---|---|---|---|---|---|
| 1788491011 | 20° C | 76% | 1018.6 hPa | 0 mm | - | - | - |
| 1788490123 | 20° C | 77% | 1018.6 hPa | 0 mm | - | - | - |
| 1788489221 | 20° C | 78% | 1018.7 hPa | 0 mm | - | - | - |
| 1788488314 | 20° C | 79% | 1018.6 hPa | 0 mm | - | - | - |
| 1788487409 | 20° C | 79% | 1018.6 hPa | 0 mm | - | - | - |
| 1788486506 | 20° C | 77% | 1018.5 hPa | 0 mm | - | - | - |
| 1788485624 | 20° C | 77% | 1018.4 hPa | 0 mm | - | - | - |
| 1788484713 | 20° C | 77% | 1018.5 hPa | 0 mm | - | - | - |
| 1788483810 | 20.56° C | 76% | 1018.4 hPa | 0 mm | - | - | - |
| 1788482925 | 20° C | 77% | 1018.4 hPa | 0 mm | - | - | - |
| 1788482011 | 20.56° C | 77% | 1018.5 hPa | 0 mm | - | - | - |
| 1788481130 | 20.56° C | 77% | 1018.6 hPa | 0 mm | - | - | - |
| 1788480215 | 20.56° C | 77% | 1018.7 hPa | 0 mm | - | - | - |
| 1788479311 | 20.56° C | 77% | 1018.7 hPa | 0 mm | - | - | - |
| 1788478427 | 21.11° C | 76% | 1018.9 hPa | 0 mm | - | - | - |
| 1788477518 | 21.11° C | 74% | 1018.8 hPa | 0 mm | - | - | - |
| 1788476611 | 21.67° C | 74% | 1018.7 hPa | 0 mm | - | - | - |
| 1788475710 | 21.67° C | 73% | 1018.6 hPa | 0 mm | - | - | - |
| 1788474811 | 21.67° C | 73% | 1018.7 hPa | 0 mm | - | - | - |
| 1788473922 | 21.67° C | 74% | 1018.8 hPa | 0 mm | - | - | - |
| 1788473011 | 21.67° C | 75% | 1018.8 hPa | 0 mm | - | - | - |
| 1788472109 | 21.67° C | 74% | 1018.7 hPa | 0 mm | - | - | - |
| 1788471227 | 21.67° C | 71% | 1018.7 hPa | 0 mm | - | - | - |
| 1788470320 | 22.22° C | 71% | 1018.6 hPa | 0 mm | - | - | - |
| 1788469412 | 21.67° C | 73% | 1018.6 hPa | 0 mm | - | - | - |
* Rain latest hour (hover to see other rain measurements)
** Current wind speed in m/s (hover to see current wind gust speed)